map of TNG home
TNG - Airport
Location
City:  Tangier, Tanger-Tétouan, Morocco
Near (Alt.):Tanger
Name:Ibn Batouta Airport
Old (Alt.):Boukhalef Airport
ICAO:GMTT
IATA:TNG

Details
Type:Airport (Aerodrome, Airfield)
Use:Public/Civil, International (customs port of entry)
Latitude:35°43'54"N (35.731667)
Longitude:5°55'16"W (-5.921110)
Elevation:69 ft (21 m)
Variation:1.18°W (WMM2015 magnetic declination)
0.11° annual change
Runways:1
Longest:11483 × 148 ft (3500 × 45 m), paved

Time
Time Zone:UTC+0 (DST+1)
Local Time:

Weather
METAR:GMTT 121130Z 21011KT 6000 FEW020 BKN033 17/12 Q1024 NOSIG
TAF:GMTT 120500Z 1206/1312 22007KT 6000 SCT010 BKN020
TEMPO 1309/1312 2000 RA SCT010 BKN013

Related Locations
Nearby:
Farthest:NZRW: 12438 mi / 20017 km
Ruawai, NTL, NZ

Find:

   beyond  
but within

Other Information
Maps:
NOTAMs:
Links:
Sources:

  
  • flag of Morocco
  

Sectional Chart

Flight Planning
at skyvector.com

Satellite Image

Google Maps Satellite view

 

Copyright © 2004-2018 Karl L. Swartz. All rights reserved.
The Great Circle Mapper name and logo are trademarks of the Great Circle Mapper.
All other trademarks mentioned herein belong to their respective owners.
Please see credits for attibutions and further copyright information.

  Follow gcmap on Facebook Follow gcmap on Twitter Follow gcmap on Google+ GCmap on LinkedIn

hCard Microformat

Geo Microformat